Location: Newark
(35.0033°N, 81.0878°W)
Time: 20:05:07
(UTC+00:00)

ISS - Visible Passes

Search period start: 19 June 2021 00:00
Search period end: 29 June 2021 00:00
Orbit: 417 x 422 km, 51.6° (Epoch: 18 June)

Date Brightness Start Highest point End Pass type
(mag) Time Alt. Az. Time Alt. Az. Time Alt. Az.
24 Jun -2.1 09:08:49 11° S 09:11:30 27° SE 09:14:25 10° ENE visible
25 Jun -1.5 08:23:24 14° SE 08:24:12 15° SE 08:26:12 10° E visible
26 Jun -3.8 09:10:52 18° SW 09:13:14 79° NW 09:16:36 10° NE visible
27 Jun -3.4 08:25:17 47° S 08:25:48 53° SE 08:29:05 10° ENE visible
28 Jun -1.6 07:39:39 22° E 07:39:39 22° E 07:41:20 10° ENE visible
28 Jun -2.1 09:12:36 12° W 09:15:11 25° NW 09:18:04 10° NNE visible
